La Paz, Mexico

3:26 AM MDT on April 25, 2017 (GMT -0600)
Gen Manuel Marquez De Leon

Weather History for MMLP - October, 2013

Change the Weather History Date:

Sunday, October 27, 2013

  Actual Average Record
Temperature  
Mean Temperature 76 °F -  
Max Temperature 89 °F 84 °F 95 °F (1998)
Min Temperature 63 °F 61 °F 59 °F (2010)
Cooling Degree Days 11    
Growing Degree Days 26 (Base 50)    
Moisture  
Dew Point 62 °F    
Average Humidity 60    
Maximum Humidity 88    
Minimum Humidity 29    
Precipitation  
Precipitation 0.00 in - - ()
Sea Level Pressure  
Sea Level Pressure 29.91 in    
Wind  
Wind Speed 5 mph ()    
Max Wind Speed 15 mph    
Max Gust Speed -    
Visibility 11.0 miles    
Events      
Averages and records for this station are not official NWS values.
T = Trace of Precipitation, MM = Missing Value Source: Averaged Metar Reports

Daily Weather History Graph

Daily Weather History Graph

Search for Another Location

Airport or City:

Trip Planner

Search our weather history database for the weather conditions in past years. The results will help you decide how hot, cold, wet, or windy it might be!

Date:

Astronomy

Oct. 27, 2013 Rise Set
Actual Time 6:25 AM MST 5:45 PM MST
Civil Twilight 6:01 AM MST 6:08 PM MST
Nautical Twilight 5:35 AM MST 6:35 PM MST
Astronomical Twilight 5:08 AM MST 7:01 PM MST
Moon 12:08 AM MDT (10/27) 1:16 PM MST (10/27)
Length of Visible Light 12h 06m
Length of Day
11h 20m
Last Quarter, 42% of the Moon is Illuminated
Oct 27
Last Quarter
Nov 3
New
Nov 9
First Quarter
Nov 17
Full
Nov 25
Last Quarter

Hourly Weather History & Observations

Time (MST) Temp. Heat Index Dew Point Humidity Pressure Visibility Wind Dir Wind Speed Gust Speed Precip Events Conditions
4:40 AM 66 °F - 56 °F 62% 29.92 in 2 mi South 2.2 mph - -  
5:49 AM 59.0 °F - 53.6 °F 82% 29.89 in 10.0 mi South 10.4 mph - N/A   Clear
6:50 AM 57.2 °F - 53.6 °F 88% 29.91 in 10.0 mi South 5.8 mph - N/A   Clear
7:40 AM 67 °F - 55 °F 57% 29.97 in 16 mi South 2.2 mph - -  
7:40 AM 64.4 °F - 55.4 °F 73% 29.93 in 10.0 mi South 4.6 mph - N/A   Partly Cloudy
8:40 AM 75.2 °F - 55.4 °F 50% 29.95 in 10.0 mi Calm Calm - N/A   Partly Cloudy
9:42 AM 80.6 °F 81.8 °F 62.6 °F 54% 29.95 in 10.0 mi Calm Calm - N/A   Partly Cloudy
10:44 AM 82.4 °F 84.6 °F 66.2 °F 58% 29.98 in 12.0 mi North 8.1 mph - N/A   Partly Cloudy
10:50 AM 87 °F - 70 °F 48% 29.93 in 19 mi NW 6.7 mph - -   Clear
11:43 AM 82.4 °F 85.4 °F 68.0 °F 62% 29.90 in 12.0 mi North 11.5 mph - N/A   Scattered Clouds
12:40 PM 82.4 °F 85.4 °F 68.0 °F 62% 29.88 in 12.0 mi NW 13.8 mph - N/A   Scattered Clouds
1:40 PM 84.2 °F 86.6 °F 66.2 °F 55% 29.90 in 12.0 mi NNW 15.0 mph - N/A   Scattered Clouds
1:50 PM 89 °F - 70 °F 44% 29.84 in 19 mi NW 8.9 mph - -   Clear
2:50 PM 84.2 °F 86.6 °F 66.2 °F 55% 29.84 in 10.0 mi NNW 11.5 mph - N/A   Mostly Cloudy
3:41 PM 86.0 °F 87.3 °F 64.4 °F 48% 29.83 in 10.0 mi NNW 9.2 mph - N/A   Mostly Cloudy
4:48 PM 84.2 °F 85.0 °F 62.6 °F 48% 29.95 in 10.0 mi NW 6.9 mph - N/A   Mostly Cloudy
4:50 PM 89 °F - 61 °F 29% 29.83 in 19 mi NW 4.5 mph - -   Clear
5:49 PM 80.6 °F 81.8 °F 62.6 °F 54% 29.85 in 10.0 mi NNW 6.9 mph - N/A   Scattered Clouds
6:45 PM 75.2 °F - 62.6 °F 65% 29.87 in 10.0 mi Calm Calm - N/A   Scattered Clouds
7:45 PM 73.4 °F - 60.8 °F 65% 30.00 in 10.0 mi South 5.8 mph - N/A   Scattered Clouds
7:50 PM 79 °F - 68 °F 61% 29.88 in 2 mi SSE 2.2 mph - -  
8:50 PM 71.6 °F - 59.0 °F 64% 29.90 in 10.0 mi South 6.9 mph - N/A   Scattered Clouds
9:53 PM 71.6 °F - 62.6 °F 73% 29.91 in 10.0 mi South 5.8 mph - N/A   Partly Cloudy
10:45 PM 71.6 °F - 64.4 °F 78% 30.01 in 10.0 mi South 9.2 mph - N/A   Partly Cloudy